Regional Weather Roundup
Issued by NWS Green Bay, WI

Home | Current Version | Previous Version | Text Only | Print | Product List | Glossary On
Versions: 1 2 3 4 5 6 7 8 9 10 11 12 13 14 15 16 17 18 19 20 21 22 23 24 25 26 27 28 29 30 31 32 33 34 35 36 37 38 39 40 41 42 43 44 45 46 47 48 49 50
000
ASUS43 KGRB 262200
RWRGRB

NORTH-CENTRAL AND NORTHEAST WISCONSIN REGIONAL WEATHER ROUNDUP
NATIONAL WEATHER SERVICE GREEN BAY WI
400 PM CST SUN FEB 26 2017

WIZ005-009-010>012-018-019-262300-
NORTH CENTRAL WISCONSIN

CITY           SKY/WX    TMP DP  RH WIND       PRES   REMARKS
IRONWOOD       MOSUNNY   24  13  62 NW17G25   29.77R
MANITOWISH WTR NOT AVBL
ARBOR VITAE    NOT AVBL
EAGLE RIVER    NOT AVBL
LAND O LAKES   NOT AVBL
RHINELANDER    CLOUDY    30  23  75 W20       29.72R
PHILLIPS       NOT AVBL
ANTIGO         NOT AVBL
TOMAHAWK       NOT AVBL
MERRILL        NOT AVBL
$$

WIZ013-073-262300-
NORTHEAST WISCONSIN

CITY           SKY/WX    TMP DP  RH WIND       PRES   REMARKS
IRON MOUNTAIN  LGT SNOW  31  22  69 NW22G32   29.70R VSB 3/4
MARINETTE      PTSUNNY   38  22  52 W10G18    29.75R
$$

WIZ017-030-035>037-045-262300-
CENTRAL WISCONSIN

CITY           SKY/WX    TMP DP  RH WIND       PRES   REMARKS
MEDFORD        NOT AVBL
WAUSAU         CLOUDY    33  22  63 W17G24    29.76R
MOSINEE        PTSUNNY   34  21  60 W17G25    29.76S
MARSHFIELD     SUNNY     34  18  52 W12       29.77R
WISC RAPIDS    CLOUDY    38  20  48 W15G23    29.80R
STEVENS POINT  NOT AVBL
WAUPACA        NOT AVBL
SHAWANO        PTSUNNY   40  21  45 W9G20     29.77R
CLINTONVILLE   NOT AVBL
WAUTOMA        MOSUNNY   40  22  48 W16G25    29.81R
$$

WIZ038-039-048-051-262300-
FOX VALLEY

CITY           SKY/WX    TMP DP  RH WIND       PRES   REMARKS
NWS GREEN BAY  CLOUDY    41  21  44 W17       29.79R
APPLETON       PTSUNNY   37  21  52 SW16      29.77S
OSHKOSH        SUNNY     38  25  59 SW12      29.81R
FOND DU LAC    SUNNY     39  25  57 SW13      29.83R
$$

WIZ022-050-052-262300-
EAST CENTRAL WISCONSIN

CITY           SKY/WX    TMP DP  RH WIND       PRES   REMARKS
EPHRAIM        NOT AVBL
WASHINGTON ISL NOT AVBL
STURGEON BAY   PTSUNNY   37  23  56 SW14G25   29.77R
MANITOWOC      NOT AVBL
SHEBOYGAN      SUNNY     38  25  59 SW17      29.83R
$$

LMZ563-521-522-541>543-262300-
LAKESHORE

STATION/POSITION TIME  TEMP    WIND        PRES    VSBY  WAVE
                       AIR SEA DIR/SP/G                  HT/PER
                 (UTC) (F)     (DEG/KT/KT) (MB)    (MI)  (FT/S)
SHEBOYGAN LKSHOR 2100   39     230/ 18/ 21 1010.4S
KEWAUNEE LKSHORE 2130   38     230/ 11/ 15 1008.3R
ALGOMA MARINA    2126          250/ 20/ 26   N/A
NORTHPORT PIER   2140   38     220/  5/ 15 1007.1R
SISTER BAY LKSHO 2050   39     240/ 20/ 25   N/A
CHAMBERS ISLAND  2140   36     210/  8/ 15 1007.1R
MENOMINEE LKSHOR 2130   36     210/ 16/ 20 1006.6R
$$




USA.gov is the U.S. government's official web portal to all federal, state and local government web resources and services.